• în Republica Moldova
  • Lista ţărilor
  • Pe 7 zile
  • Temperatura apei
  • Hartă satelitară
  • Meteo pe hartă
  • Widget-uri
  • user-avatar
    Intrare

    Meteo pe oră la Mostar

    Astăzi, 23 Ianuarie, Miercuri

    Timp Temperatura Precipitaţii Vânt Presiune Umiditate
    00:00 +6°C° 0.4 mm 2 m/s 744 mmHg 91%
    01:00 +7°C° 0.4 mm 2 m/s 744 mmHg 93%
    02:00 +7°C° 0.9 mm 2 m/s 743 mmHg 93%
    03:00 +7°C° 0.9 mm 2 m/s 743 mmHg 93%
    04:00 +7°C° 0.9 mm 3 m/s 743 mmHg 93%
    05:00 +5°C° 0.8 mm 3 m/s 743 mmHg 92%
    06:00 +5°C° 0.8 mm 3 m/s 742 mmHg 91%
    07:00 +5°C° 0.8 mm 3 m/s 742 mmHg 90%
    08:00 +7°C° 1 mm 3 m/s 742 mmHg 87%
    09:00 +8°C° 1 mm 3 m/s 742 mmHg 83%
    10:00 +7°C° 1 mm 4 m/s 742 mmHg 80%
    11:00 +7°C° 0.9 mm 4 m/s 741 mmHg 79%
    12:00 +7°C° 0.9 mm 4 m/s 741 mmHg 79%
    13:00 +8°C° 0.9 mm 4 m/s 741 mmHg 79%
    14:00 +8°C° 0.5 mm 3 m/s 740 mmHg 80%
    15:00 +8°C° 0.5 mm 3 m/s 740 mmHg 81%
    16:00 +8°C° 0.5 mm 2 m/s 740 mmHg 83%
    17:00 +7°C° 0.1 mm 2 m/s 740 mmHg 83%
    18:00 +6°C° 0.1 mm 2 m/s 740 mmHg 84%
    19:00 +5°C° 0.1 mm 2 m/s 740 mmHg 85%
    20:00 +5°C° 0 mm 2 m/s 740 mmHg 84%
    21:00 +5°C° 0 mm 2 m/s 740 mmHg 84%
    22:00 +4°C° 0 mm 2 m/s 740 mmHg 83%
    23:00 +4°C° 0 mm 2 m/s 740 mmHg 82%

    Mâine, 24 Ianuarie, Joi

    Timp Temperatura Precipitaţii Vânt Presiune Umiditate
    00:00 +4°C° 0 mm 2 m/s 739 mmHg 81%
    01:00 +4°C° 0 mm 2 m/s 739 mmHg 81%
    02:00 +3°C° 0 mm 2 m/s 739 mmHg 80%
    03:00 +3°C° 0 mm 2 m/s 739 mmHg 79%
    04:00 +3°C° 0 mm 2 m/s 739 mmHg 78%
    05:00 +2°C° 0 mm 3 m/s 739 mmHg 78%
    06:00 +1°C° 0 mm 3 m/s 739 mmHg 79%
    07:00 +1°C° 0 mm 3 m/s 739 mmHg 79%
    08:00 +2°C° 0 mm 3 m/s 739 mmHg 77%
    09:00 +3°C° 0 mm 3 m/s 739 mmHg 75%
    10:00 +5°C° 0 mm 3 m/s 740 mmHg 72%
    11:00 +5°C° 0 mm 3 m/s 739 mmHg 71%
    12:00 +7°C° 0 mm 3 m/s 739 mmHg 70%
    13:00 +8°C° 0 mm 3 m/s 739 mmHg 69%
    14:00 +7°C° 0 mm 3 m/s 739 mmHg 70%
    15:00 +7°C° 0 mm 3 m/s 739 mmHg 72%
    16:00 +7°C° 0 mm 3 m/s 739 mmHg 73%
    17:00 +5°C° 0 mm 3 m/s 740 mmHg 74%
    18:00 +4°C° 0 mm 3 m/s 740 mmHg 75%
    19:00 +3°C° 0 mm 3 m/s 740 mmHg 77%
    20:00 +3°C° 0 mm 3 m/s 740 mmHg 76%
    21:00 +1°C° 0 mm 4 m/s 740 mmHg 75%
    22:00 +1°C° 0 mm 4 m/s 740 mmHg 74%
    23:00 +1°C° 0 mm 4 m/s 740 mmHg 73%

    Poimâine, 25 Ianuarie, Vineri

    Timp Temperatura Precipitaţii Vânt Presiune Umiditate
    00:00 +1°C° 0 mm 4 m/s 740 mmHg 71%
    01:00 +1°C° 0 mm 4 m/s 740 mmHg 70%
    02:00 +1°C° 0 mm 4 m/s 740 mmHg 70%
    03:00 +1°C° 0 mm 4 m/s 740 mmHg 70%
    04:00 +1°C° 0 mm 4 m/s 740 mmHg 70%
    05:00 0°C° 0 mm 4 m/s 740 mmHg 70%
    06:00 0°C° 0 mm 4 m/s 740 mmHg 70%
    07:00 0°C° 0 mm 4 m/s 741 mmHg 70%
    08:00 +1°C° 0 mm 4 m/s 741 mmHg 68%
    09:00 +3°C° 0 mm 4 m/s 741 mmHg 65%
    10:00 +3°C° 0 mm 5 m/s 742 mmHg 63%
    11:00 +3°C° 0 mm 5 m/s 742 mmHg 62%
    12:00 +3°C° 0 mm 5 m/s 742 mmHg 62%
    13:00 +5°C° 0 mm 5 m/s 742 mmHg 61%
    14:00 +3°C° 0 mm 5 m/s 742 mmHg 62%
    15:00 +4°C° 0 mm 4 m/s 742 mmHg 63%
    16:00 +3°C° 0 mm 4 m/s 742 mmHg 64%
    17:00 +3°C° 0 mm 4 m/s 743 mmHg 64%
    18:00 +1°C° 0 mm 4 m/s 743 mmHg 65%
    19:00 0°C° 0 mm 4 m/s 744 mmHg 66%
    20:00 0°C° 0 mm 4 m/s 744 mmHg 65%
    21:00 0°C° 0 mm 4 m/s 744 mmHg 65%
    22:00 0°C° 0 mm 4 m/s 744 mmHg 65%
    23:00 -1°C° 0 mm 4 m/s 745 mmHg 65%

    26 Ianuarie, Sâmbătă

    Timp Temperatura Precipitaţii Vânt Presiune Umiditate
    00:00 0°C° 0 mm 3 m/s 745 mmHg 65%
    01:00 0°C° 0 mm 3 m/s 745 mmHg 64%
    02:00 0°C° 0 mm 3 m/s 745 mmHg 64%
    03:00 0°C° 0 mm 3 m/s 745 mmHg 64%
    04:00 0°C° 0 mm 3 m/s 745 mmHg 64%
    05:00 0°C° 0 mm 3 m/s 745 mmHg 64%
    06:00 0°C° 0 mm 3 m/s 745 mmHg 64%
    07:00 0°C° 0 mm 3 m/s 746 mmHg 63%
    08:00 +1°C° 0 mm 3 m/s 746 mmHg 61%
    09:00 +1°C° 0 mm 4 m/s 746 mmHg 59%
    10:00 +3°C° 0 mm 4 m/s 746 mmHg 56%
    11:00 +4°C° 0 mm 4 m/s 746 mmHg 56%
    12:00 +4°C° 0 mm 4 m/s 746 mmHg 56%
    13:00 +5°C° 0 mm 4 m/s 746 mmHg 55%
    14:00 +4°C° 0 mm 3 m/s 746 mmHg 58%
    15:00 +4°C° 0 mm 3 m/s 746 mmHg 61%
    16:00 +3°C° 0 mm 3 m/s 746 mmHg 64%
    17:00 +2°C° 0 mm 3 m/s 746 mmHg 66%
    18:00 +2°C° 0 mm 3 m/s 746 mmHg 68%
    19:00 +1°C° 0 mm 3 m/s 747 mmHg 70%
    20:00 0°C° 0 mm 3 m/s 747 mmHg 70%
    21:00 0°C° 0 mm 3 m/s 747 mmHg 71%
    22:00 -1°C° 0 mm 2 m/s 747 mmHg 71%
    23:00 -1°C° 0 mm 2 m/s 747 mmHg 70%

    27 Ianuarie, Duminică

    Timp Temperatura Precipitaţii Vânt Presiune Umiditate
    00:00 -1°C° 0 mm 2 m/s 746 mmHg 70%
    01:00 -1°C° 0 mm 2 m/s 746 mmHg 69%
    02:00 -1°C° 0 mm 2 m/s 746 mmHg 69%
    03:00 -1°C° 0 mm 2 m/s 745 mmHg 68%
    04:00 -1°C° 0 mm 2 m/s 745 mmHg 67%
    05:00 -1°C° 0 mm 2 m/s 745 mmHg 67%
    06:00 +1°C° 0 mm 2 m/s 745 mmHg 66%
    07:00 +1°C° 0 mm 2 m/s 744 mmHg 66%
    08:00 +2°C° 0 mm 2 m/s 744 mmHg 62%
    09:00 +4°C° 0 mm 2 m/s 744 mmHg 59%
    10:00 +5°C° 0 mm 2 m/s 744 mmHg 55%
    11:00 +6°C° 0 mm 2 m/s 744 mmHg 57%
    12:00 +7°C° 0 mm 2 m/s 744 mmHg 60%
    13:00 +8°C° 0 mm 2 m/s 743 mmHg 62%
    14:00 +7°C° 0 mm 2 m/s 743 mmHg 67%
    15:00 +7°C° 0 mm 2 m/s 743 mmHg 72%
    16:00 +6°C° 0 mm 2 m/s 743 mmHg 77%
    17:00 +6°C° 0.1 mm 2 m/s 743 mmHg 80%
    18:00 +4°C° 0.1 mm 3 m/s 744 mmHg 82%
    19:00 +3°C° 0.1 mm 3 m/s 744 mmHg 85%
    20:00 +3°C° 0.1 mm 3 m/s 744 mmHg 82%
    21:00 +3°C° 0.1 mm 4 m/s 744 mmHg 80%
    22:00 +4°C° 0.1 mm 4 m/s 744 mmHg 78%
    23:00 +3°C° 0.1 mm 4 m/s 744 mmHg 77%

    28 Ianuarie, Luni

    Timp Temperatura Precipitaţii Vânt Presiune Umiditate
    00:00 +3°C° 0.1 mm 4 m/s 744 mmHg 75%
    01:00 +3°C° 0.1 mm 4 m/s 744 mmHg 74%
    02:00 +3°C° 0.3 mm 4 m/s 744 mmHg 75%
    03:00 +4°C° 0.3 mm 4 m/s 743 mmHg 76%
    04:00 +4°C° 0.3 mm 4 m/s 743 mmHg 77%
    05:00 +4°C° 1.2 mm 4 m/s 743 mmHg 78%
    06:00 +4°C° 1.2 mm 4 m/s 743 mmHg 80%
    07:00 +4°C° 1.2 mm 4 m/s 743 mmHg 81%
    08:00 +4°C° 2 mm 4 m/s 743 mmHg 84%
    09:00 +5°C° 2 mm 4 m/s 743 mmHg 87%
    10:00 +5°C° 2 mm 3 m/s 743 mmHg 90%
    11:00 +5°C° 0.4 mm 4 m/s 744 mmHg 89%
    12:00 +6°C° 0.4 mm 4 m/s 744 mmHg 89%
    13:00 +6°C° 0.4 mm 4 m/s 744 mmHg 88%
    14:00 +6°C° 0.1 mm 4 m/s 744 mmHg 87%
    15:00 +7°C° 0.1 mm 3 m/s 745 mmHg 87%
    16:00 +7°C° 0.1 mm 3 m/s 745 mmHg 86%
    17:00 +5°C° 0 mm 3 m/s 745 mmHg 85%
    18:00 +4°C° 0 mm 3 m/s 746 mmHg 84%
    19:00 +3°C° 0 mm 3 m/s 746 mmHg 83%
    20:00 +3°C° 0 mm 3 m/s 747 mmHg 82%
    21:00 +4°C° 0 mm 2 m/s 747 mmHg 81%
    22:00 +4°C° 0 mm 2 m/s 748 mmHg 80%
    23:00 +3°C° 0 mm 2 m/s 748 mmHg 78%
    Arată mai mult